Weather in Okhotino

Russia / Yaroslavl Oblast     57°47′55″N   38°30′10″E
temp.,
°C
wind,
m/s
gust,
m/s
humid.,
%
clouds,
%
prec.,
mm/h
press.,
hPa
HPBL,
m
14 june, mon
mon1400:00+17sse2377100 0.0 100961
03:00+15sw228159 0.0 101020
06:00+17sw2583100 0.0 1011134
09:00+18sw2475100 0.0 1013245
12:00+23wsw345781 0.0 1013889
15:00+24w3449100 0.1 10131354
18:00+20wnw127721 0.3 1014196
21:00+17nnw249284 1.7 101471
15 june, tue
tue1500:00+14nne2294100 0.0 101523
03:00+13ne119464 0.0 101511
06:00+16ne119053 0.0 101569
09:00+21s116842 0.0 1014523
12:00+24w24536 0.0 10121359
15:00+25wsw355526 0.0 10111192
18:00+23w246899 0.0 1009277
21:00+19ssw227511 0.1 100922
16 june, wed
wed1600:00+18wsw2478100 0.1 1009104
03:00+16nnw3871100 0.1 1009263
06:00+15nnw4983100 0.0 1011384
09:00+18nnw46665 0.0 1012881
12:00+21nw67392 0.0 10132044
15:00+21nw57367 0.0 10142257
18:00+20nw47465 0.0 10151667
21:00+14wnw37659 0.0 1017126
17 june, thu
thu1700:00+12wnw38625 0.0 1019127
03:00+10wnw36705 0.0 1021100
06:00+13nw26725 0.0 1022180
09:00+18nw36532 0.0 1023944
12:00+21nw57415 0.0 10232175
15:00+23nw46381 0.0 10232202
18:00+22nw25480 0.0 10241784
21:00+17sw117239 0.0 102411
18 june, fri
fri1800:00+14w22761 0.0 102518
03:00+13wsw228362 0.0 102627
06:00+15wsw23742 0.0 1027106
09:00+21wsw245898 0.0 1026484
12:00+24wsw454856 0.0 10261356
15:00+25wsw4648100 0.0 10251553
18:00+25wsw365797 0.0 10241242
21:00+19sw38800 0.0 1024131